Weather History for CYQG - November, 2012

Change the Weather History Date:

Thursday, November 1, 2012

  Actual Average Record
Temperature  
Mean Temperature 44 °F -  
Max Temperature 48 °F 47 °F 71 °F (1999)
Min Temperature 40 °F 33 °F 30 °F (1996)
Degree Days  
Heating Degree Days 21    
Moisture  
Dew Point 34 °F    
Average Humidity 69    
Maximum Humidity 93    
Minimum Humidity 43    
Precipitation  
Precipitation 0.00 in 0.10 in - ()
Sea Level Pressure  
Sea Level Pressure 29.71 in    
Wind  
Wind Speed 11 mph ()    
Max Wind Speed 18 mph    
Max Gust Speed 22 mph    
Visibility 14.4 miles    
Events Rain    
Averages and records for this station are not official NWS values.
T = Trace of Precipitation, MM = Missing Value Source: Averaged Metar Reports

Daily Weather History Graph

Daily Weather History Graph

Search for Another Location

Airport or City:

Trip Planner

Search our weather history database for the weather conditions in past years. The results will help you decide how hot, cold, wet, or windy it might be!

Date:

Astronomy

Nov. 01, 2012 Rise Set
Actual Time 8:05 AM EDT 6:24 PM EDT
Civil Twilight 7:36 AM EDT 6:53 PM EDT
Nautical Twilight 7:03 AM EDT 7:26 PM EDT
Astronomical Twilight 6:30 AM EDT 7:59 PM EDT
Moon 8:18 PM EDT (11/1) 10:39 AM EDT (11/1)
Length of Visible Light 11h 17m
Length of Day
10h 19m
Waning Gibbous, 93% of the Moon is Illuminated
Nov 1
Waning Gibbous
Nov 6
Last Quarter
Nov 13
New
Nov 20
First Quarter
Nov 28
Full

Hourly Weather History & Observations

Time (EDT) Temp. Windchill Dew Point Humidity Pressure Visibility Wind Dir Wind Speed Gust Speed Precip Events Conditions
12:00 AM 41.0 °F 33.5 °F 37.4 °F 87% 29.65 in 15.0 mi NW 13.8 mph - N/A Rain Light Rain
12:35 AM - - - N/A% - 15.0 mi NW 11.5 mph - N/A   Overcast
1:00 AM 42.8 °F 36.6 °F 35.6 °F 76% 29.66 in 15.0 mi NW 11.5 mph 21.9 mph N/A   Overcast
2:00 AM 42 °F - 36 °F 74% 29.66 in 15 mi NW 12.7 mph - -   Partly Cloudy
2:00 AM 41.0 °F 33.1 °F 37.4 °F 87% 29.66 in 15.0 mi WNW 15.0 mph - N/A   Overcast
3:00 AM 41.0 °F 33.5 °F 37.4 °F 87% 29.66 in 15.0 mi NW 13.8 mph - N/A   Overcast
4:00 AM 41.0 °F 33.9 °F 37.4 °F 87% 29.66 in 15.0 mi WNW 12.7 mph - N/A   Overcast
5:00 AM 41.0 °F 35.2 °F 39.2 °F 93% 29.67 in 12.0 mi WNW 9.2 mph - N/A   Overcast
5:06 AM - - - N/A% - 8.0 mi WNW 11.5 mph - N/A   Light Drizzle
5:25 AM - - - N/A% - 7.0 mi West 10.4 mph - N/A   Light Drizzle
6:00 AM 41.0 °F 34.3 °F 39.2 °F 93% 29.68 in 12.0 mi WNW 11.5 mph - N/A   Light Drizzle
6:18 AM - - - N/A% - 15.0 mi WNW 10.4 mph - N/A   Overcast
6:46 AM - - - N/A% - 15.0 mi WNW 11.5 mph - N/A   Overcast
7:00 AM 41.0 °F 33.1 °F 35.6 °F 81% 29.68 in 15.0 mi WNW 15.0 mph - N/A   Overcast
7:37 AM - - - N/A% - 15.0 mi WNW 13.8 mph - N/A Rain Light Rain Showers
8:00 AM 41 °F - 36 °F 74% 29.69 in 15 mi WNW 16.1 mph - - Rain Light Rain Showers
8:00 AM 41.0 °F 33.9 °F 35.6 °F 81% 29.69 in 15.0 mi WNW 12.7 mph 19.6 mph N/A Rain Light Rain Showers
8:28 AM - - - N/A% - 15.0 mi WNW 12.7 mph - N/A   Overcast
9:00 AM 41.0 °F 33.9 °F 35.6 °F 81% 29.71 in 15.0 mi WNW 12.7 mph 18.4 mph N/A   Overcast
10:00 AM 41.0 °F 33.9 °F 35.6 °F 81% 29.72 in 15.0 mi WNW 12.7 mph 18.4 mph N/A   Overcast
11:00 AM 41.0 °F 33.1 °F 33.8 °F 76% 29.73 in 15.0 mi WNW 15.0 mph 20.7 mph N/A   Overcast
12:00 PM 41.0 °F 32.5 °F 33.8 °F 76% 29.73 in 15.0 mi WNW 17.3 mph - N/A   Overcast
1:00 PM 42.8 °F 36.2 °F 33.8 °F 70% 29.73 in 15.0 mi WNW 12.7 mph 19.6 mph N/A   Overcast
2:00 PM 45 °F - 31 °F 47% 29.72 in 15 mi WNW 18.4 mph - -   Partly Cloudy
2:00 PM 44.6 °F 36.9 °F 32.0 °F 61% 29.72 in 15.0 mi West 18.4 mph - N/A   Mostly Cloudy
3:00 PM 46.4 °F 40.4 °F 30.2 °F 53% 29.70 in 15.0 mi WNW 13.8 mph - N/A   Scattered Clouds
4:00 PM 46.4 °F 40.4 °F 30.2 °F 53% 29.71 in 15.0 mi NW 13.8 mph 19.6 mph N/A   Mostly Cloudy
5:00 PM 48.2 °F - 30.2 °F 50% 29.71 in 15.0 mi WNW 13.8 mph - N/A   Scattered Clouds
6:00 PM 46.4 °F 41.9 °F 30.2 °F 53% 29.72 in 15.0 mi NW 9.2 mph - N/A   Mostly Cloudy
7:00 PM 46.4 °F 41.1 °F 30.2 °F 53% 29.74 in 15.0 mi NW 11.5 mph 17.3 mph N/A   Mostly Cloudy
8:00 PM 45 °F - 30 °F 43% 29.75 in 15 mi NW 10.4 mph - -   Mostly Cloudy
8:00 PM 44.6 °F 39.2 °F 30.2 °F 57% 29.75 in 15.0 mi NW 10.4 mph 17.3 mph N/A   Mostly Cloudy
9:00 PM 44.6 °F 40.2 °F 28.4 °F 53% 29.75 in 15.0 mi WNW 8.1 mph - N/A   Mostly Cloudy
10:00 PM 44.6 °F 39.2 °F 30.2 °F 57% 29.76 in 15.0 mi WNW 10.4 mph - N/A   Mostly Cloudy
11:00 PM 42.8 °F 39.3 °F 30.2 °F 61% 29.78 in 15.0 mi North 5.8 mph - N/A   Mostly Cloudy